Regional Weather Roundup
Issued by NWS

Current Version | Previous Version | Text Only | Print | Product List | Glossary Off
Versions: 1 2 3 4 5 6 7 8 9 10 11 12 13 14 15 16 17 18 19 20 21 22 23 24 25 26 27 28 29 30 31 32 33 34 35 36 37 38 39 40 41 42 43 44 45 46 47 48 49 50

000
ASUS44 KJAN 010403
RWRMS

MISSISSIPPI HOURLY WEATHER ROUNDUP
NATIONAL WEATHER SERVICE JACKSON MS
1100 PM CDT FRI OCT 31 2014

NOTE: "FAIR: INDICATES FEW OR NO CLOUDS BELOW 12,000 FEET WITH NO
SIGNIFICANT WEATHER AND/OR OBSTRUCTIONS TO VISIBILITY.

MSZ001>002-007>008-010>013-018>021-025>028-034>036-010500-
NORTHWEST MISSISSIPPI

CITY           SKY/WX    TMP DP  RH WIND       PRES   REMARKS
CLARKSDALE     FAIR      41  30  65 N10       30.35R
CLEVELAND      FAIR      42  30  62 N8        30.33R
GREENWOOD      CLEAR     41  26  55 N7        30.32R
GREENVILLE     CLEAR     44  27  51 N8        30.33R
GRENADA        FAIR      41  27  56 CALM      30.33R
OLIVE BRANCH   CLEAR     37  28  70 N9        30.32S WCI  31
OXFORD         FAIR      37  25  60 NW7       30.32S WCI  32
TUNICA         CLEAR     36  30  80 NW8       30.36R WCI  29
$$

MSZ003>006-009-014>017-022>024-029>033-037>039-010500-
NORTHEAST MISSISSIPPI

CITY           SKY/WX    TMP DP  RH WIND       PRES   REMARKS
COLUMBUS AFB   NOT AVBL
CORINTH        FAIR     N/A N/A N/A MISG        N/A
GOLDN TRIANGLE CLEAR    N/A N/A N/A N14       30.25R
STARKVILLE     FAIR      43  28  56 N6        30.27R
TUPELO         CLEAR     41  26  55 N8        30.27R
$$

MSZ040-058-010500-
CENTRAL MISSISSIPPI

CITY           SKY/WX    TMP DP  RH WIND       PRES   REMARKS
JACKSON INTL   CLEAR     50  24  36 N26G35    30.27R
JACKSON HAWKNS CLEAR     50  27  40 N16G25    30.28R
MERIDIAN KEY   CLEAR     46  23  40 N15G26    30.24R
MERIDIAN NAS   CLEAR     46  22  38 N17G28    30.24R
RAYMOND        FAIR      50  46  87 MISG      30.28R
VICKSBURG      CLEAR     50  30  46 N17       30.30R
$$

MSZ059>079-010500-
SOUTH MISSISSIPPI

CITY           SKY/WX    TMP DP  RH WIND       PRES   REMARKS
BROOKHAVEN     FAIR      50  43  76 N7        30.25R
COLUMBIA         N/A     52  37  58 MISG      30.21R
HATTIESBURG    CLEAR     54  37  52 N13G21    30.21R
MCCOMB         CLEAR     52  42  69 N6        30.23R
NATCHEZ        CLEAR     50  43  76 CALM      30.26R
PINE BELT      CLEAR     52  36  54 N9        30.22R
$$

MSZ080>082-010500-
COASTAL MISSISSIPPI

CITY           SKY/WX    TMP DP  RH WIND       PRES   REMARKS
BILOXI         NOT AVBL
PASCAGOULA     CLEAR     57  40  52 N15G25    30.14R
GULFPORT       CLEAR     57  42  57 N17G24    30.16R
$$



USA.gov is the U.S. government's official web portal to all federal, state and local government web resources and services.